Flag for Canada Weather past 2 weeks in Igloolik, Nunavut Territory, Canada

Now
-17 °F

Clear.


Feels Like: -39 °F
Forecast: -20 / 2 °F
Wind: 13 mph from West

Location: Hall Beach


UV Index: 0 (Low)

Visibility: 9 mi


Pressure: 30.22 "Hg

Humidity: 76%

Dew point: -22 °F

Location of IgloolikLocation

Historic Weather in Igloolik

°F

Igloolik temperature yesterday

Maximum temperature yesterday: 1 °F (at 5:50 AM)
Minimum temperature yesterday: -11 °F (at 10:00 PM)
Average temperature yesterday: -4 °F

Past Weeks' High & Low Weather Summary

 TemperatureHumidityPressure
High14 °F (Apr 20, 7:00 PM)92% (Apr 10, 6:00 AM)30.22 "Hg (Apr 10, 6:00 AM)
Low-22 °F (Apr 15, 2:00 AM)68% (Apr 15, 5:00 AM)29.12 "Hg (Apr 11, 4:00 AM)
Average-1 °F81%29.84 "Hg
* Reported Apr 10 3:01 AM — Apr 25 3:00 AM, Igloolik, Weather by CustomWeather, © 2014

Note: Actual official high and low records may vary slightly from our data, if they occured in-between our weather recording intervals... More about our weather records

Advertising

Historic Weather Conditions — Data for Previous 24 hours

 ConditionsComfort  
Time TempWeatherWind HumidityBarometerVisibility
3:00 AM
Apr 25
-17 °FClear.13 mph76%30.22 "Hg9 mi
2:00 AM-17 °FClear.9 mph76%30.22 "Hg9 mi
1:00 AM-15 °FClear.10 mph76%30.22 "Hg9 mi
12:00 AM-15 °FClear.13 mph83%30.21 "Hg9 mi
11:00 PM
Apr 24
-11 °FClear.12 mph76%30.22 "Hg9 mi
10:00 PM-11 °FClear.14 mph76%30.22 "Hg9 mi
9:00 PM-8 °FSunny.14 mph77%30.22 "Hg9 mi
8:00 PM-6 °FSnow flurries. Ice fog.7 mph77%30.22 "Hg3 mi
7:00 PM-4 °FScattered clouds.7 mph77%30.21 "Hg15 mi
6:00 PM-2 °FScattered clouds.7 mph71%30.20 "Hg15 mi
5:00 PM0 °FSnow flurries. Broken clouds.9 mph71%30.19 "Hg12 mi
4:00 PM0 °FSnow flurries. Partly sunny.14 mph71%30.19 "Hg9 mi
3:00 PM0 °FSnow flurries. Broken clouds.21 mph78%30.18 "Hg4 mi
2:00 PM0 °FSnow flurries. Partly sunny.24 mph71%30.18 "Hg1 mi
1:00 PM-2 °FSnow flurries. Low level haze.20 mph77%30.17 "Hg8 mi
12:00 PM-2 °FSnow flurries. Low level haze.16 mph77%30.17 "Hg10 mi
11:00 AM-2 °FSnow flurries. Low level haze.20 mph71%30.16 "Hg12 mi
10:00 AM-4 °FSnow flurries. Low level haze.18 mph77%30.14 "Hg15 mi
9:00 AM-4 °FSnow flurries. Low level haze.21 mph84%30.14 "Hg10 mi
8:00 AM-2 °FScattered clouds.12 mph84%30.14 "Hg15 mi
7:00 AM1 °FPartly sunny.9 mph85%30.13 "Hg9 mi
6:02 AM-2 °FLight snow. Partly sunny.9 mph84%30.12 "Hg6 mi
5:50 AM1 °FLight snow. Overcast.12 mph85%30.12 "Hg3 mi
5:02 AM0 °FLight snow. Overcast.13 mph84%30.12 "Hg5 mi
4:00 AM-9 °FLight snow. Scattered clouds.10 mph84%30.13 "Hg9 mi
Weather by CustomWeather, © 2014

See weather overview